Wind_Speed
28 28 28 28 29 30 31 31 31 31 32 32 31 31 32 33 33 33 34 35 36 35 36 35 34 34 35 35 35 34 34 34 34 35 34 35 35 36 37 38 37 37 37 38
28 28 28 28 29 30 30 31 31 32 32 33 32 31 31 32 32 33 33 34 34 34 35 34 34 34 34 35 34 34 34 34 35 34 34 34 35 35 36 37 36 37 38 39
28 27 27 28 29 30 30 31 31 31 32 34 34 33 31 31 31 32 32 33 33 33 34 34 34 34 34 34 33 33 33 33 33 33 33 34 34 35 36 35 36 38 38 39
28 27 27 27 28 29 30 30 31 31 32 33 34 34 30 30 31 31 31 32 32 32 33 33 33 33 33 33 33 33 32 32 32 33 33 34 34 35 35 36 37 38 39 39
28 28 28 27 27 29 29 30 31 31 33 34 33 35 31 30 30 30 30 30 30 31 31 31 32 32 32 32 33 33 32 32 32 32 33 34 35 35 36 36 37 38 37 37
29 28 28 28 28 28 29 30 31 32 33 34 32 34 33 30 30 30 29 29 29 29 29 29 30 31 31 31 32 33 33 33 33 33 33 33 33 34 36 36 37 37 37 37
29 29 29 28 28 28 29 29 30 32 33 33 31 33 33 30 30 29 29 29 29 29 28 28 28 29 30 30 31 32 33 33 33 34 34 34 34 35 36 37 37 38 38 39
30 29 29 28 29 29 28 29 29 31 32 32 31 32 31 30 29 29 29 28 29 29 29 29 29 29 30 30 31 32 34 34 34 34 34 34 34 35 36 36 37 38 38 39
30 30 29 28 28 28 28 28 28 30 31 31 32 32 31 30 30 29 28 28 29 29 29 30 30 30 30 31 31 33 34 35 35 35 35 34 34 35 35 36 37 37 38 38
30 30 29 28 28 28 28 28 28 29 30 31 31 31 30 29 29 28 27 27 28 29 30 30 30 31 31 31 32 32 32 33 34 34 35 35 35 34 35 36 37 37 38 39
28 29 29 28 28 28 28 28 29 30 31 32 32 30 29 29 29 29 29 29 28 29 28 28 29 30 31 31 31 32 33 32 33 34 34 34 34 35 35 35 35 36 37 38
27 28 28 27 27 28 28 28 28 29 30 31 32 31 28 28 28 29 30 30 29 28 28 28 28 29 29 30 31 31 32 33 33 33 34 34 35 35 36 36 37 37 38 38
28 28 28 28 28 28 28 28 29 30 31 31 32 31 28 28 28 29 30 30 30 29 28 27 27 28 29 29 30 31 32 33 33 34 34 34 34 35 36 37 37 38 38 39
28 29 28 28 28 29 29 29 29 31 32 32 32 32 30 29 29 29 28 29 29 29 28 27 26 27 28 29 29 31 32 33 34 34 34 35 35 36 36 37 38 39 39 39
28 28 28 28 28 29 30 28 28 30 31 32 31 32 30 30 30 30 29 29 29 29 28 27 27 27 28 29 29 30 31 32 33 34 35 35 36 37 37 38 38 39 39 40
29 28 28 28 28 29 29 28 29 30 30 31 31 31 29 29 30 30 30 30 30 29 29 28 28 28 28 29 29 30 31 32 33 34 35 36 37 37 37 37 38 39 39 39
29 29 29 29 29 30 30 28 29 29 29 30 30 29 28 29 30 30 30 29 29 29 29 29 28 28 28 28 29 30 30 32 32 33 34 35 36 36 37 37 38 38 39 40
29 28 29 29 30 31 29 28 28 29 29 28 28 29 29 29 29 29 29 29 28 29 29 29 30 30 30 30 30 30 31 31 32 33 34 35 36 36 37 37 38 38 39 39
28 28 29 30 31 31 29 28 29 29 28 27 27 28 29 29 29 29 29 29 29 28 29 29 29 29 30 30 30 31 31 32 32 33 34 35 35 36 36 37 37 38 39 39
27 28 29 30 31 31 28 27 27 28 28 26 27 28 28 29 29 28 28 28 28 28 27 28 29 29 30 30 31 31 31 32 32 32 33 33 34 34 35 35 36 37 38 39
27 28 29 29 30 29 26 26 26 27 27 26 27 27 28 28 28 27 27 28 28 28 28 29 30 30 30 31 31 32 32 32 32 33 33 33 33 34 34 35 36 37 37 38
28 28 28 28 29 28 26 26 26 26 26 26 27 27 27 27 27 27 27 27 27 28 28 29 30 31 31 31 31 32 32 32 33 33 33 34 34 35 35 36 36 37 37 38
28 28 29 29 28 27 27 27 26 26 26 25 26 26 26 26 26 26 27 27 27 27 28 29 29 30 31 31 31 32 32 32 33 33 34 34 35 35 35 35 36 37 38 38
27 28 29 29 28 28 28 27 26 26 26 27 27 27 26 26 26 26 26 27 27 27 27 27 28 29 29 30 30 31 31 31 32 32 32 33 34 34 35 36 37 37 38 38
28 28 28 29 28 29 28 28 28 27 27 27 28 27 27 26 26 26 26 26 26 26 27 27 27 28 29 30 30 30 30 31 31 31 31 32 33 34 34 35 36 36 37 37
28 29 29 29 28 29 29 28 28 27 27 27 27 27 27 27 27 26 26 26 26 26 27 27 27 28 29 29 29 29 30 30 31 31 31 32 32 33 33 34 35 35 36 37
Wind_Direction
266 265 265 264 265 266 267 267 268 268 267 266 266 267 266 265 265 263 261 260 258 258 257 259 259 258 258 257 256 255 254 253 253 252 252 252 252 251 249 250 250 251 251 251
266 266 265 264 264 265 266 267 268 267 267 266 266 266 267 267 267 266 263 262 261 259 258 258 259 259 258 257 256 255 254 254 253 252 251 252 252 251 250 250 250 251 252 254
268 267 266 265 265 265 266 267 268 268 268 268 269 268 267 267 268 268 265 263 262 261 260 260 260 259 257 256 255 254 254 255 253 252 252 252 250 250 249 249 251 253 254 255
267 267 267 267 267 268 267 267 267 267 268 269 269 270 268 268 268 268 268 265 263 262 260 259 259 258 256 255 253 252 254 253 252 253 253 252 251 251 250 250 251 254 255 256
268 268 268 268 269 269 269 268 267 266 267 268 270 271 269 269 268 268 268 265 262 261 261 260 259 257 255 254 252 251 252 252 252 253 253 253 253 253 253 253 254 254 255 256
268 268 269 269 269 269 270 269 267 267 268 270 272 273 272 269 271 271 268 265 261 261 262 261 260 257 256 254 253 252 252 253 253 254 254 254 255 255 255 255 256 256 256 257
269 268 268 269 269 269 269 269 269 268 268 271 274 274 274 271 270 270 268 266 262 261 261 261 259 258 257 256 254 252 251 253 254 255 255 255 256 256 256 257 257 256 257 257
271 271 269 269 270 271 269 268 269 270 271 273 273 274 274 272 271 270 269 266 265 264 262 261 260 259 258 257 255 253 253 254 254 255 256 256 256 257 258 259 258 259 259 260
272 273 271 270 269 269 269 268 269 268 269 271 271 272 273 272 271 270 269 266 265 266 264 263 261 260 259 258 257 257 256 254 253 255 256 257 257 258 258 259 259 260 261 263
271 272 271 270 269 267 268 268 267 266 268 270 272 273 274 273 271 269 268 268 268 266 265 264 262 261 260 259 258 257 256 254 253 254 256 257 258 259 259 260 260 261 263 263
270 271 272 270 269 269 267 266 265 265 266 269 271 272 273 274 271 269 268 269 269 267 265 263 262 261 261 259 257 256 256 254 254 255 256 257 257 258 259 261 263 263 264 265
269 271 272 272 270 268 267 267 265 265 267 267 269 271 271 272 271 270 270 270 269 268 266 264 262 261 260 259 258 257 256 256 257 258 258 259 258 259 260 262 263 265 266 267
267 269 273 272 270 268 268 267 266 266 265 266 266 269 270 270 270 269 268 267 267 267 266 264 263 260 260 260 259 258 258 257 257 258 259 260 261 261 261 263 264 266 267 268
268 268 269 270 270 270 269 268 267 266 267 267 267 268 267 268 268 269 269 268 267 266 265 263 261 261 261 260 260 259 259 259 259 259 260 261 261 262 262 264 265 266 267 268
269 268 268 268 268 268 269 269 268 268 268 268 267 266 267 267 266 266 267 268 266 265 263 261 260 262 262 262 261 261 260 260 260 260 261 262 263 263 263 264 266 267 268 269
269 270 268 268 268 268 268 268 270 271 270 270 266 264 266 265 266 266 266 266 265 263 262 260 260 261 262 262 262 262 262 261 261 262 262 263 264 265 265 265 267 269 270 271
268 269 269 269 269 268 267 270 272 271 270 270 267 265 265 265 265 265 265 266 265 262 260 257 259 261 262 263 263 263 263 263 263 264 264 265 265 265 265 266 268 268 269 271
266 266 267 268 267 267 271 271 272 271 270 269 268 266 265 265 264 264 263 264 265 262 259 259 261 263 264 265 265 265 265 265 265 266 267 266 266 267 267 268 268 268 269 271
264 265 266 268 270 271 271 273 274 273 271 270 269 267 266 266 266 266 265 264 265 264 262 261 262 264 265 267 267 267 268 269 269 269 270 270 269 269 269 269 269 269 270 271
263 264 267 270 271 273 275 274 273 272 271 271 271 269 267 266 266 265 265 265 265 265 265 262 262 265 267 268 268 269 269 271 271 271 271 271 271 272 272 271 271 271 271 272
264 264 266 269 272 275 278 276 274 273 273 271 271 270 268 267 267 267 266 265 265 266 267 267 265 265 267 269 269 270 271 272 273 272 272 272 272 273 274 273 273 274 275 275
264 265 265 268 271 275 277 275 274 275 274 272 271 270 269 267 267 267 267 267 267 267 268 269 267 267 268 269 270 271 271 273 273 273 273 273 272 273 274 275 275 276 276 277
262 265 267 267 270 273 274 273 273 272 271 271 271 271 270 268 267 268 269 269 269 270 270 270 269 268 268 269 271 272 272 274 274 274 274 274 273 274 275 276 277 278 278 278
262 264 265 267 268 269 270 269 269 269 269 268 270 271 270 269 268 268 269 270 271 271 272 272 271 270 270 271 271 273 273 274 274 274 274 274 274 275 276 277 278 279 279 279
263 264 265 266 267 267 267 267 267 267 268 268 268 269 269 269 269 269 270 271 271 271 272 273 272 270 270 271 272 273 273 274 275 275 275 276 277 277 278 278 279 281 282 283
266 267 268 268 267 266 266 266 266 267 267 268 267 267 267 268 268 269 270 271 271 271 273 274 275 274 272 272 273 274 275 276 277 277 277 277 278 279 279 280 281 283 284 285
Height
5697 5699 5700 5700 5701 5701 5701 5702 5702 5703 5702 5702 5703 5704 5704 5705 5706 5707 5707 5707 5708 5709 5710 5711 5712 5712 5713 5714 5715 5716 5718 5720 5722 5724 5726 5728 5730 5733 5736 5738 5741 5744 5747 5750
5691 5692 5692 5692 5692 5693 5693 5694 5694 5694 5694 5694 5694 5696 5697 5697 5698 5698 5699 5699 5700 5701 5701 5702 5703 5704 5705 5706 5707 5708 5710 5712 5714 5716 5719 5721 5723 5725 5728 5731 5734 5736 5739 5741
5683 5685 5684 5684 5685 5685 5686 5686 5686 5686 5686 5686 5686 5687 5689 5690 5690 5690 5691 5691 5691 5692 5693 5694 5695 5696 5697 5698 5699 5701 5703 5705 5707 5709 5711 5713 5715 5717 5720 5723 5726 5729 5731 5733
5675 5677 5677 5677 5677 5677 5678 5678 5678 5678 5677 5678 5679 5678 5682 5682 5683 5683 5683 5683 5683 5684 5684 5685 5686 5688 5689 5690 5692 5694 5696 5697 5699 5701 5703 5705 5708 5710 5713 5715 5718 5721 5723 5724
5668 5669 5669 5670 5670 5669 5670 5670 5670 5670 5669 5669 5670 5669 5674 5675 5675 5676 5676 5676 5676 5676 5677 5678 5679 5680 5681 5682 5684 5686 5688 5690 5692 5694 5696 5698 5700 5703 5705 5708 5710 5712 5714 5716
5661 5661 5661 5662 5663 5662 5662 5662 5662 5662 5661 5661 5664 5662 5664 5667 5667 5668 5668 5668 5668 5669 5670 5670 5671 5673 5674 5675 5677 5679 5681 5683 5685 5687 5689 5691 5693 5695 5698 5700 5702 5704 5706 5708
5653 5654 5653 5654 5655 5655 5655 5655 5654 5653 5653 5654 5657 5654 5656 5659 5660 5660 5660 5661 5661 5662 5663 5664 5665 5665 5667 5668 5669 5671 5674 5676 5678 5680 5682 5684 5685 5687 5689 5691 5693 5696 5697 5699
5644 5646 5646 5646 5647 5647 5647 5647 5648 5647 5646 5647 5648 5647 5650 5651 5652 5653 5653 5653 5654 5655 5656 5657 5658 5658 5659 5661 5662 5664 5665 5668 5670 5672 5674 5676 5678 5679 5681 5683 5685 5687 5688 5690
5635 5637 5638 5639 5639 5639 5639 5639 5640 5639 5639 5639 5640 5641 5643 5644 5645 5646 5646 5646 5647 5647 5648 5649 5650 5651 5652 5653 5654 5656 5657 5659 5662 5664 5666 5668 5669 5671 5673 5674 5676 5677 5678 5679
5627 5628 5631 5631 5631 5632 5632 5632 5632 5632 5631 5631 5632 5634 5636 5637 5638 5638 5639 5639 5639 5640 5640 5641 5642 5643 5644 5645 5646 5648 5649 5651 5653 5655 5658 5659 5661 5662 5664 5665 5666 5667 5668 5669
5620 5620 5622 5623 5624 5624 5625 5626 5625 5624 5624 5624 5624 5629 5629 5630 5630 5631 5631 5631 5632 5632 5632 5633 5634 5635 5636 5637 5638 5640 5641 5643 5645 5647 5648 5650 5652 5653 5655 5656 5657 5657 5658 5659
5613 5613 5613 5616 5617 5616 5617 5617 5618 5618 5618 5617 5617 5622 5623 5623 5622 5623 5623 5623 5623 5624 5624 5625 5626 5627 5628 5629 5630 5632 5633 5635 5636 5638 5639 5641 5642 5644 5645 5646 5647 5648 5648 5649
5606 5606 5606 5607 5610 5610 5609 5610 5610 5610 5609 5609 5609 5614 5615 5614 5614 5614 5615 5615 5615 5616 5617 5617 5618 5619 5620 5621 5622 5624 5625 5626 5628 5629 5631 5632 5633 5634 5636 5637 5637 5638 5638 5639
5598 5599 5600 5601 5600 5600 5601 5602 5602 5602 5601 5601 5603 5604 5606 5606 5606 5606 5607 5607 5607 5608 5609 5610 5611 5611 5613 5613 5615 5616 5617 5618 5619 5620 5621 5623 5624 5625 5626 5627 5627 5628 5628 5628
5590 5591 5591 5592 5593 5593 5593 5594 5595 5594 5594 5594 5595 5596 5598 5598 5598 5598 5599 5599 5599 5600 5601 5602 5603 5604 5605 5606 5607 5608 5609 5609 5610 5611 5612 5613 5614 5614 5615 5616 5617 5617 5617 5618
5583 5583 5584 5585 5585 5584 5585 5586 5587 5587 5587 5586 5586 5588 5590 5589 5589 5589 5590 5591 5592 5592 5593 5595 5596 5596 5597 5598 5598 5599 5600 5601 5601 5602 5603 5603 5604 5604 5604 5605 5606 5606 5606 5606
5575 5576 5576 5577 5577 5576 5577 5580 5579 5579 5579 5578 5578 5581 5581 5581 5581 5581 5582 5583 5584 5585 5585 5586 5587 5588 5589 5590 5590 5591 5591 5591 5592 5592 5593 5593 5594 5594 5594 5594 5595 5595 5595 5594
5568 5568 5568 5568 5569 5568 5573 5572 5571 5570 5571 5571 5571 5571 5572 5572 5573 5573 5574 5575 5576 5576 5577 5578 5579 5580 5581 5581 5582 5582 5582 5582 5583 5583 5583 5583 5583 5583 5583 5583 5583 5583 5583 5583
5561 5561 5560 5560 5559 5560 5564 5564 5563 5562 5563 5564 5563 5563 5563 5564 5565 5566 5567 5567 5568 5568 5569 5570 5571 5571 5572 5572 5573 5573 5573 5573 5573 5573 5573 5573 5573 5573 5572 5572 5572 5572 5572 5571
5553 5553 5553 5553 5552 5552 5557 5557 5555 5555 5555 5557 5555 5555 5556 5556 5557 5559 5559 5559 5559 5560 5560 5561 5562 5562 5563 5563 5563 5563 5564 5564 5564 5563 5563 5563 5563 5562 5562 5562 5561 5561 5560 5560
5545 5545 5545 5545 5544 5545 5549 5548 5548 5549 5550 5549 5548 5548 5548 5548 5549 5550 5551 5551 5551 5552 5552 5553 5553 5554 5554 5554 5554 5554 5554 5554 5554 5553 5553 5553 5553 5552 5552 5551 5550 5550 5549 5548
5537 5537 5538 5537 5537 5541 5541 5540 5541 5541 5541 5540 5540 5540 5540 5541 5541 5542 5542 5542 5543 5543 5544 5544 5544 5544 5545 5545 5545 5545 5545 5545 5544 5544 5543 5543 5543 5542 5541 5540 5539 5538 5537 5536
5528 5530 5530 5531 5533 5533 5533 5532 5533 5533 5533 5532 5532 5533 5533 5533 5533 5534 5534 5534 5535 5535 5535 5535 5535 5535 5535 5536 5536 5536 5535 5535 5534 5534 5533 5533 5532 5531 5530 5530 5529 5527 5526 5525
5521 5521 5521 5522 5524 5524 5524 5524 5524 5524 5524 5524 5525 5525 5525 5525 5526 5526 5526 5526 5526 5526 5526 5526 5526 5526 5526 5527 5526 5526 5526 5525 5524 5524 5523 5522 5522 5521 5520 5519 5518 5517 5515 5514
5512 5512 5512 5513 5515 5515 5516 5516 5516 5516 5516 5516 5517 5517 5517 5518 5518 5518 5518 5518 5518 5518 5518 5517 5517 5517 5517 5517 5517 5517 5516 5516 5515 5514 5513 5512 5511 5511 5510 5508 5507 5506 5504 5502
5505 5505 5505 5505 5506 5506 5507 5507 5507 5507 5508 5508 5509 5509 5509 5510 5510 5510 5510 5510 5510 5510 5510 5509 5509 5508 5509 5508 5508 5508 5507 5506 5505 5504 5503 5502 5501 5500 5499 5498 5497 5494 5493 5491